EW9763 Weather Reports


Display with metric or nautical units.
time (UTC)temp
F
wind
direction
speed
MPH
gust
MPH
rain 1hr
in
rain 24hr
in
rain mn
in
humidity
%
barometer
mb
20260506171124 51 261 5.0 11.0 0.00 0.00 0.00 52 1012.8
20260506170623 50 275 4.0 11.0 0.00 0.00 0.00 53 1012.8
20260506170123 49 297 4.0 10.0 0.00 0.00 0.00 53 1012.8
20260506165623 49 312 5.0 15.0 0.00 0.00 0.00 54 1012.9
20260506165124 49 279 4.0 15.0 0.00 0.00 0.00 53 1012.9
20260506164624 48 234 4.0 10.0 0.00 0.00 0.00 56 1012.9
20260506164119 49 269 5.0 12.0 0.00 0.00 0.00 55 1012.9
20260506163849 48 315 6.0 14.0 0.00 0.00 0.00 58 1012.9
20260506163117 48 275 8.0 14.0 0.00 0.00 0.00 55 1012.9
20260506162617 48 290 6.0 14.0 0.00 0.00 0.00 57 1012.8
20260506162118 49 333 5.0 13.0 0.00 0.00 0.00 55 1012.9
20260506161848 49 309 4.0 11.0 0.00 0.00 0.00 55 1012.9
20260506161113 49 298 3.0 8.0 0.00 0.00 0.00 57 1013.0
20260506160613 49 163 3.0 10.0 0.00 0.00 0.00 56 1013.1
20260506160116 47 319 4.0 10.0 0.00 0.00 0.00 58 1013.1
20260506155613 48 321 3.0 10.0 0.00 0.00 0.00 59 1013.2
20260506155111 48 136 2.0 5.0 0.00 0.00 0.00 59 1013.2
20260506154841 48 149 2.0 5.0 0.00 0.00 0.00 62 1013.1
20260506154109 49 161 2.0 5.0 0.00 0.00 0.00 62 1013.1
20260506153610 48 300 3.0 6.0 0.00 0.00 0.00 61 1013.1
20260506153339 48 269 3.0 8.0 0.00 0.00 0.00 60 1013.0
20260506153222 48 300 2.0 8.0 0.00 0.00 0.00 61 1013.0
20260506152109 47 117 3.0 5.0 0.00 0.00 0.00 66 1013.0
20260506151607 47 125 3.0 5.0 0.00 0.00 0.00 68 1013.0
20260506151108 46 113 2.0 4.0 0.00 0.00 0.00 67 1013.0
20260506150605 46 117 1.0 3.0 0.00 0.00 0.00 66 1013.0
20260506150103 46 58 2.0 5.0 0.00 0.00 0.00 65 1013.0
20260506145601 46 11 2.0 6.0 0.00 0.00 0.00 65 1013.0
20260506145101 46 294 2.0 6.0 0.00 0.00 0.00 66 1012.9
20260506144601 47 286 2.0 4.0 0.00 0.00 0.00 64 1012.9
20260506144059 47 215 2.0 4.0 0.00 0.00 0.00 67 1012.9
20260506143552 46 302 1.0 4.0 0.00 0.00 0.00 68 1012.8
20260506143049 45 107 1.0 3.0 0.00 0.00 0.00 67 1012.8
20260506142550 45 101 1.0 3.0 0.00 0.00 0.00 67 1012.8
20260506142049 45 97 2.0 4.0 0.00 0.00 0.00 69 1012.7
20260506141549 45 100 3.0 6.0 0.00 0.00 0.00 70 1012.9
20260506141054 45 110 2.0 4.0 0.00 0.00 0.00 71 1012.9
20260506141049 45 103 2.0 6.0 0.00 0.00 0.00 70 1012.9
20260506140045 44 131 3.0 5.0 0.00 0.00 0.00 70 1012.8
20260506135547 45 146 3.0 6.0 0.00 0.00 0.00 71 1012.8
20260506135046 45 124 3.0 6.0 0.00 0.00 0.00 73 1012.7
20260506134546 44 106 3.0 6.0 0.00 0.00 0.00 72 1012.7
20260506134317 44 98 3.0 6.0 0.00 0.00 0.00 73 1012.8
20260506133817 44 98 4.0 8.0 0.00 0.00 0.00 74 1012.8
20260506133040 44 96 4.0 8.0 0.00 0.00 0.00 73 1012.7
20260506132541 44 69 3.0 7.0 0.00 0.00 0.00 75 1012.6
20260506132041 44 88 2.0 7.0 0.00 0.00 0.00 76 1012.7
20260506131540 43 76 2.0 4.0 0.00 0.00 0.00 78 1012.8
20260506131042 42 95 3.0 4.0 0.00 0.00 0.00 78 1012.7
20260506130541 42 99 2.0 7.0 0.00 0.00 0.00 79 1012.6
20260506130040 42 91 2.0 7.0 0.00 0.00 0.00 81 1012.6
20260506125542 41 41 2.0 4.0 0.00 0.00 0.00 82 1012.7
20260506125313 40 36 2.0 4.0 0.00 0.00 0.00 84 1012.6
20260506124541 40 43 1.0 4.0 0.00 0.00 0.00 85 1012.4
20260506124042 39 9 1.0 3.0 0.00 0.00 0.00 86 1012.4
20260506123541 37 0 2.0 3.0 0.00 0.00 0.00 87 1012.4
20260506123537 38 11 2.0 3.0 0.00 0.00 0.00 87 1012.3
20260506122537 37 342 2.0 4.0 0.00 0.00 0.00 87 1012.3
20260506122036 37 342 2.0 4.0 0.00 0.00 0.00 87 1012.3
20260506121537 37 341 2.0 4.0 0.00 0.00 0.00 87 1012.3
20260506121309 37 344 3.0 5.0 0.00 0.00 0.00 87 1012.2
20260506120531 37 5 2.0 5.0 0.00 0.00 0.00 88 1012.2
20260506120030 36 67 2.0 3.0 0.00 0.00 0.00 87 1012.1
20260506115532 36 98 1.0 2.0 0.00 0.00 0.00 88 1012.1
20260506115027 36 110 1.0 3.0 0.00 0.00 0.00 88 1012.1
20260506114528 36 101 1.0 3.0 0.00 0.00 0.00 88 1012.0
20260506114026 36 107 1.0 3.0 0.00 0.00 0.00 88 1012.0
20260506113527 36 99 1.0 3.0 0.00 0.00 0.00 88 1012.0
20260506113027 36 75 1.0 4.0 0.00 0.00 0.00 89 1012.1
20260506112527 36 76 2.0 4.0 0.00 0.00 0.00 89 1011.9
20260506112026 35 77 2.0 4.0 0.00 0.00 0.00 89 1011.9
20260506111523 36 77 2.0 4.0 0.00 0.00 0.00 90 1011.9
20260506111022 35 74 2.0 4.0 0.00 0.00 0.00 90 1011.8
20260506110524 35 36 1.0 3.0 0.00 0.00 0.00 90 1011.7
20260506110021 35 33 1.0 2.0 0.00 0.00 0.00 89 1011.7
20260506105519 35 32 0.0 2.0 0.00 0.00 0.00 89 1011.6
20260506105250 35 28 0.0 0.0 0.00 0.00 0.00 89 1011.5
20260506104521 35 34 0.0 1.0 0.00 0.00 0.00 89 1011.5
20260506104517 35 30 0.0 1.0 0.00 0.00 0.00 89 1011.4
20260506103516 34 34 0.0 0.0 0.00 0.00 0.00 88 1011.5
20260506103012 34 34 0.0 1.0 0.00 0.00 0.00 88 1011.5
20260506102510 34 34 0.0 1.0 0.00 0.00 0.00 88 1011.4
20260506102011 34 34 0.0 1.0 0.00 0.00 0.00 87 1011.5
20260506101508 34 34 1.0 2.0 0.00 0.00 0.00 87 1011.4
20260506101006 34 34 1.0 2.0 0.00 0.00 0.00 87 1011.4
20260506100508 35 34 0.0 1.0 0.00 0.00 0.00 87 1011.4
20260506100237 35 37 0.0 1.0 0.00 0.00 0.00 87 1011.4
20260506095503 35 37 0.0 2.0 0.00 0.00 0.00 87 1011.4
20260506095003 35 37 1.0 2.0 0.00 0.00 0.00 87 1011.4
20260506094457 35 44 1.0 3.0 0.00 0.00 0.00 87 1011.4
20260506094228 34 44 2.0 3.0 0.00 0.00 0.00 87 1011.3
20260506093727 34 43 2.0 3.0 0.00 0.00 0.00 87 1011.4
20260506092956 34 42 2.0 3.0 0.00 0.00 0.00 86 1011.4
20260506092458 34 42 2.0 3.0 0.00 0.00 0.00 86 1011.5
20260506091957 34 42 2.0 3.0 0.00 0.00 0.00 86 1011.5
20260506091457 35 43 2.0 4.0 0.00 0.00 0.00 86 1011.5
20260506090952 35 43 2.0 4.0 0.00 0.00 0.00 85 1011.4
20260506090450 35 50 2.0 5.0 0.00 0.00 0.00 85 1011.3
20260506085948 35 51 2.0 5.0 0.00 0.00 0.00 85 1011.3
20260506085450 36 26 1.0 2.0 0.00 0.00 0.00 85 1011.3
20260506085446 36 28 1.0 5.0 0.00 0.00 0.00 85 1011.4
20260506084447 36 26 1.0 3.0 0.00 0.00 0.00 85 1011.3
20260506083942 36 25 1.0 3.0 0.00 0.00 0.00 85 1011.2
20260506083440 36 25 1.0 3.0 0.00 0.00 0.00 84 1011.2
20260506082940 36 24 1.0 3.0 0.00 0.00 0.00 84 1011.3
20260506082441 36 23 2.0 3.0 0.00 0.00 0.00 84 1011.1
20260506081940 36 22 1.0 3.0 0.00 0.00 0.00 83 1011.1
20260506081443 36 21 1.0 2.0 0.00 0.00 0.00 83 1011.1
20260506080938 36 21 1.0 2.0 0.00 0.00 0.00 83 1011.1
20260506080436 37 21 1.0 3.0 0.00 0.00 0.00 83 1011.1
20260506072931 37 96 4.0 8.0 0.00 0.00 0.00 81 1010.9
20260506072430 37 115 5.0 8.0 0.00 0.00 0.00 81 1010.9
20260506071928 37 100 5.0 8.0 0.00 0.00 0.00 80 1010.9
20260506071659 37 101 5.0 10.0 0.00 0.00 0.00 79 1010.8
20260506070922 37 101 6.0 10.0 0.00 0.00 0.00 79 1010.9
20260506070422 37 97 4.0 9.0 0.00 0.00 0.00 79 1010.8
20260506062413 38 316 0.0 0.0 0.00 0.00 0.00 77 1010.7
20260506061912 38 319 0.0 0.0 0.00 0.00 0.00 77 1010.7
20260506061411 38 319 0.0 0.0 0.00 0.00 0.00 77 1010.7
20260506060904 38 319 0.0 1.0 0.00 0.00 0.00 77 1010.7
20260506060404 39 319 0.0 1.0 0.00 0.00 0.00 77 1010.7
20260506050845 40 321 0.0 1.0 0.00 0.00 0.00 73 1010.8
20260506050343 41 321 0.0 1.0 0.00 0.00 0.00 71 1010.8
20260506044838 41 321 0.0 0.0 0.00 0.00 0.00 64 1010.6
20260506044336 41 321 0.0 0.0 0.00 0.00 0.00 64 1010.7
20260506043837 41 321 0.0 0.0 0.00 0.00 0.00 63 1010.6
20260506043337 41 315 0.0 0.0 0.00 0.00 0.00 63 1010.6
20260506042834 41 315 0.0 0.0 0.00 0.00 0.00 62 1010.5
20260506042335 42 315 0.0 2.0 0.00 0.00 0.00 61 1010.5
20260506041829 42 315 0.0 2.0 0.00 0.00 0.00 60 1010.6
20260506041558 42 315 0.0 2.0 0.00 0.00 0.00 60 1010.5
20260506040825 42 315 0.0 1.0 0.00 0.00 0.00 59 1010.4
20260506040322 42 315 0.0 1.0 0.00 0.00 0.00 59 1010.5
20260506035823 42 315 0.0 1.0 0.00 0.00 0.00 59 1010.5
20260506035317 42 310 0.0 0.0 0.00 0.00 0.00 58 1010.5
20260506034814 42 310 0.0 1.0 0.00 0.00 0.00 58 1010.5
20260506034315 43 310 0.0 1.0 0.00 0.00 0.00 58 1010.5
20260506034045 43 310 0.0 1.0 0.00 0.00 0.00 58 1010.5
20260506033312 43 310 0.0 1.0 0.00 0.00 0.00 58 1010.5
20260506033042 43 310 0.0 1.0 0.00 0.00 0.00 58 1010.5
20260506032311 43 310 0.0 1.0 0.00 0.00 0.00 59 1010.5
20260506031809 43 310 0.0 2.0 0.00 0.00 0.00 60 1010.6
20260506031307 43 310 2.0 4.0 0.00 0.00 0.00 61 1010.5
20260506030804 43 310 2.0 4.0 0.00 0.00 0.00 61 1010.5
20260506030304 43 313 2.0 4.0 0.00 0.00 0.00 60 1010.4
20260506025805 43 315 2.0 3.0 0.00 0.00 0.00 60 1010.4
20260506025306 43 317 2.0 3.0 0.00 0.00 0.00 61 1010.3
20260506024804 43 317 2.0 4.0 0.00 0.00 0.00 60 1010.3
20260506024304 43 319 3.0 4.0 0.00 0.00 0.00 60 1010.3
20260506023807 44 315 3.0 5.0 0.00 0.00 0.00 61 1010.2
20260506023301 44 300 2.0 5.0 0.00 0.00 0.00 60 1010.2
20260506022759 44 307 3.0 4.0 0.00 0.00 0.00 60 1010.2
20260506022300 44 306 3.0 4.0 0.00 0.00 0.00 59 1010.2
20260506021807 44 319 3.0 5.0 0.00 0.00 0.00 58 1010.1
20260506021300 45 323 3.0 5.0 0.00 0.00 0.00 58 1010.0
20260506020801 45 311 3.0 5.0 0.00 0.00 0.00 57 1009.9
20260506020258 45 322 3.0 5.0 0.00 0.00 0.00 56 1009.9
20260506015756 45 298 4.0 8.0 0.00 0.00 0.00 55 1009.9
20260506015257 46 315 4.0 8.0 0.00 0.00 0.00 54 1009.8
20260506014756 46 323 4.0 8.0 0.00 0.00 0.00 53 1009.7
20260506014301 46 322 5.0 9.0 0.00 0.00 0.00 53 1009.6
20260506014030 46 315 6.0 9.0 0.00 0.00 0.00 51 1009.5
20260506013528 46 318 6.0 9.0 0.00 0.00 0.00 51 1009.5
20260506012752 46 324 6.0 10.0 0.00 0.00 0.00 51 1009.3
20260506012253 47 319 7.0 10.0 0.00 0.00 0.00 51 1009.2
20260506011752 47 317 7.0 11.0 0.00 0.00 0.00 50 1009.1
20260506011253 47 322 8.0 13.0 0.00 0.00 0.00 49 1009.0
20260506010753 47 322 9.0 15.0 0.00 0.00 0.00 48 1009.0
20260506010253 47 309 9.0 15.0 0.00 0.00 0.00 48 1009.0
20260506005754 48 338 10.0 16.0 0.00 0.00 0.00 47 1009.0
20260506005249 48 288 12.0 19.0 0.00 0.00 0.00 46 1009.0
20260506004748 48 314 12.0 19.0 0.00 0.00 0.00 45 1009.0
20260506004518 49 314 11.0 19.0 0.00 0.00 0.00 45 1009.0
20260506003749 49 315 11.0 16.0 0.00 0.00 0.00 46 1009.0
20260506003244 49 327 11.0 16.0 0.00 0.00 0.00 45 1008.9
20260506002745 49 289 11.0 17.0 0.00 0.00 0.00 45 1008.8
20260506002241 49 336 12.0 18.0 0.00 0.00 0.00 44 1008.9
20260506002021 49 286 12.0 20.0 0.00 0.00 0.00 44 1008.9
20260506001243 50 304 11.0 20.0 0.00 0.00 0.00 44 1008.8
20260506000745 50 317 12.0 20.0 0.00 0.00 0.00 46 1008.8
20260506000240 50 311 14.0 22.0 0.00 0.00 0.00 44 1008.8
20260505235655 50 291 13.0 22.0 0.00 0.00 0.00 44 1008.8
20260505235155 50 321 11.0 19.0 0.00 0.00 0.00 44 1008.7
20260505234655 50 315 12.0 20.0 0.00 0.00 0.00 44 1008.7
20260505234155 50 232 14.0 22.0 0.00 0.00 0.00 43 1008.6
20260505233649 51 333 14.0 22.0 0.00 0.00 0.00 43 1008.5
20260505233148 51 324 14.0 23.0 0.00 0.00 0.00 43 1008.5
20260505232650 51 319 15.0 23.0 0.00 0.00 0.00 43 1008.4
20260505232421 51 319 15.0 23.0 0.00 0.00 0.00 43 1008.4
20260505231649 51 295 13.0 22.0 0.00 0.00 0.00 44 1008.3
20260505231148 51 292 13.0 22.0 0.00 0.00 0.00 44 1008.3
20260505230919 51 313 13.0 22.0 0.00 0.00 0.00 42 1008.2
20260505230145 51 303 14.0 26.0 0.00 0.00 0.00 42 1008.2
20260505225650 52 290 13.0 21.0 0.00 0.00 0.00 42 1008.2
20260505225645 52 286 13.0 26.0 0.00 0.00 0.00 43 1008.2
20260505224645 52 322 13.0 21.0 0.00 0.00 0.00 43 1008.1
20260505224416 52 321 14.0 24.0 0.00 0.00 0.00 42 1008.1
20260505223645 52 323 14.0 24.0 0.00 0.00 0.00 42 1008.1
20260505223145 53 296 13.0 23.0 0.00 0.00 0.00 42 1008.1
20260505222643 53 315 14.0 23.0 0.00 0.00 0.00 43 1008.0
20260505222639 53 300 13.0 23.0 0.00 0.00 0.00 41 1008.1
20260505221642 53 293 14.0 24.0 0.00 0.00 0.00 42 1008.0
20260505221138 53 257 16.0 24.0 0.00 0.00 0.00 40 1007.9
20260505220644 53 294 13.0 24.0 0.00 0.00 0.00 42 1007.9
20260505220640 53 268 16.0 24.0 0.00 0.00 0.00 42 1007.8
20260505215639 53 294 13.0 25.0 0.00 0.00 0.00 41 1007.9
20260505215135 53 301 15.0 28.0 0.00 0.00 0.00 41 1007.9
20260505214634 54 265 12.0 28.0 0.00 0.00 0.00 40 1007.8
20260505214134 54 300 11.0 24.0 0.00 0.00 0.00 40 1007.8
20260505213905 54 294 13.0 24.0 0.00 0.00 0.00 41 1007.8
20260505213134 53 296 15.0 24.0 0.00 0.00 0.00 41 1007.6
20260505212634 54 286 13.0 24.0 0.00 0.00 0.00 43 1007.6
20260505212136 54 319 11.0 24.0 0.00 0.00 0.00 41 1007.6
20260505211628 54 314 12.0 24.0 0.00 0.00 0.00 39 1007.6
20260505211128 54 291 13.0 26.0 0.00 0.00 0.00 41 1007.4
20260505210630 54 318 14.0 26.0 0.00 0.00 0.00 39 1007.6
20260505210129 53 296 13.0 22.0 0.00 0.00 0.00 43 1007.6
20260505205858 53 317 12.0 22.0 0.00 0.00 0.00 41 1007.6
20260505205127 53 285 10.0 22.0 0.00 0.00 0.00 40 1007.6
20260505204622 54 250 12.0 22.0 0.00 0.00 0.00 40 1007.6
20260505204120 54 286 12.0 22.0 0.00 0.00 0.00 41 1007.5
20260505203620 54 311 11.0 20.0 0.00 0.00 0.00 40 1007.4
20260505203120 54 270 10.0 20.0 0.00 0.00 0.00 40 1007.5
20260505202620 54 286 10.0 18.0 0.00 0.00 0.00 38 1007.4
20260505202353 55 282 10.0 21.0 0.00 0.00 0.00 40 1007.6
20260505201616 55 276 10.0 21.0 0.00 0.00 0.00 43 1007.7
20260505201114 54 252 10.0 24.0 0.00 0.00 0.00 41 1007.6
20260505200614 53 260 11.0 24.0 0.00 0.00 0.00 40 1007.6
20260505200114 53 296 12.0 21.0 0.00 0.00 0.00 39 1007.6
20260505195615 53 270 11.0 23.0 0.00 0.00 0.00 44 1007.6
20260505195114 54 317 12.0 24.0 0.00 0.00 0.00 42 1007.7
20260505194609 53 294 12.0 24.0 0.00 0.00 0.00 42 1007.5
20260505194108 53 290 10.0 24.0 0.00 0.00 0.00 42 1007.6
20260505193613 54 249 9.0 21.0 0.00 0.00 0.00 39 1007.4
20260505193109 54 281 11.0 21.0 0.00 0.00 0.00 40 1007.5
20260505192840 54 277 11.0 22.0 0.00 0.00 0.00 45 1007.3
20260505192109 54 265 11.0 22.0 0.00 0.00 0.00 41 1007.3
20260505191603 54 285 12.0 21.0 0.00 0.00 0.00 42 1007.1
20260505191107 55 305 10.0 22.0 0.00 0.00 0.00 43 1007.0
20260505191103 55 332 11.0 22.0 0.00 0.00 0.00 41 1007.1
20260505185602 53 304 8.0 16.0 0.00 0.00 0.00 40 1007.1
20260505185103 54 300 9.0 20.0 0.00 0.00 0.00 40 1006.9
20260505184557 54 276 9.0 20.0 0.00 0.00 0.00 42 1007.0
20260505184056 54 315 8.0 20.0 0.00 0.00 0.00 42 1006.8
20260505183555 54 285 9.0 20.0 0.00 0.00 0.00 39 1006.8
20260505183328 54 309 8.0 20.0 0.00 0.00 0.00 41 1006.8
20260505182556 55 296 7.0 15.0 0.00 0.00 0.00 39 1006.7
20260505182328 55 327 7.0 14.0 0.00 0.00 0.00 40 1006.7
20260505181551 54 304 8.0 19.0 0.00 0.00 0.00 41 1006.8
20260505181050 54 303 10.0 21.0 0.00 0.00 0.00 38 1006.8
20260505180821 53 285 9.0 21.0 0.00 0.00 0.00 44 1006.8
20260505180050 53 268 7.0 15.0 0.00 0.00 0.00 39 1006.8
20260505175549 53 278 8.0 15.0 0.00 0.00 0.00 38 1006.7
20260505175051 53 250 9.0 16.0 0.00 0.00 0.00 38 1006.8
20260505174548 53 261 8.0 16.0 0.00 0.00 0.00 39 1006.7
20260505174047 53 321 8.0 18.0 0.00 0.00 0.00 41 1006.7
20260505173547 53 292 7.0 18.0 0.00 0.00 0.00 39 1006.7
20260505173048 53 282 6.0 14.0 0.00 0.00 0.00 42 1006.7
20260505172547 53 288 7.0 14.0 0.00 0.00 0.00 40 1006.7
20260505172047 53 246 7.0 14.0 0.00 0.00 0.00 42 1006.6
20260505171549 53 297 7.0 15.0 0.00 0.00 0.00 44 1006.7